Location: Chiroubles
(46.1812°N, 4.6660°E)
Time: 03:18:03
(UTC+00:00)

Explorer 7 - Pass Details

Date: 30 November 2020
Orbit: 484 x 678 km, 50.3° (Epoch: 25 January)

Event Time Altitude Azimuth Distance (km) Brightness Sun altitude
Exits shadow 04:46:24 51° 6° (N) 702 7.2 -22.9°
Maximum altitude 04:46:26 51° 9° (N) 702 7.2 -22.9°
Drops below altitude 10° 04:50:23 10° 86° (E) 1,779 10.5 -22.2°
Sets 04:52:35 0° 91° (E) 2,638 11.8 -21.8°
